TimeCET,TemperatureF,Dew PointF,Humidity,Sea Level PressureIn,VisibilityMPH,Wind Direction,Wind SpeedMPH,Gust SpeedMPH,PrecipitationIn,Events,Conditions,WindDirDegrees,DateUTC
12:15 AM,48.2,44.6,87,29.50,5.0,South,1.2,-,N/A,,Scattered Clouds,190,2013-02-22 23:15:00
12:45 AM,48.2,44.6,87,29.50,5.0,South,3.5,-,N/A,,Scattered Clouds,170,2013-02-22 23:45:00
1:15 AM,46.4,44.6,93,29.53,5.0,West,3.5,-,N/A,,Scattered Clouds,270,2013-02-23 00:15:00
1:45 AM,46.4,42.8,87,29.53,5.0,WSW,2.3,-,N/A,,Scattered Clouds,250,2013-02-23 00:45:00
2:15 AM,46.4,42.8,87,29.53,5.0,WSW,2.3,-,N/A,,Partly Cloudy,250,2013-02-23 01:15:00
2:45 AM,41.0,39.2,93,29.53,5.0,South,2.3,-,N/A,,Partly Cloudy,170,2013-02-23 01:45:00
3:15 AM,42.8,39.2,87,29.53,5.0,NNE,2.3,-,N/A,,Partly Cloudy,20,2013-02-23 02:15:00
3:45 AM,41.0,39.2,93,29.53,5.0,East,2.3,-,N/A,,Partly Cloudy,80,2013-02-23 02:45:00
4:15 AM,41.0,39.2,93,29.53,5.0,SSE,2.3,-,N/A,,Partly Cloudy,150,2013-02-23 03:15:00
4:45 AM,39.2,37.4,93,29.53,5.0,SSE,3.5,-,N/A,,Partly Cloudy,150,2013-02-23 03:45:00
5:15 AM,39.2,37.4,93,29.53,5.0,NE,1.2,-,N/A,,Partly Cloudy,40,2013-02-23 04:15:00
5:45 AM,39.2,35.6,87,29.53,5.0,ENE,4.6,-,N/A,,Partly Cloudy,60,2013-02-23 04:45:00
6:45 AM,39.2,37.4,93,29.53,6.2,ESE,4.6,-,N/A,,Partly Cloudy,120,2013-02-23 05:45:00
7:15 AM,39.2,35.6,87,29.53,6.2,SSE,6.9,-,N/A,,Partly Cloudy,150,2013-02-23 06:15:00
7:45 AM,41.0,33.8,76,29.53,6.2,SE,5.8,-,N/A,,Mostly Cloudy,140,2013-02-23 06:45:00
8:15 AM,42.8,35.6,76,29.53,6.2,ESE,6.9,-,N/A,,Mostly Cloudy,110,2013-02-23 07:15:00
8:45 AM,42.8,35.6,76,29.53,6.2,NW,1.2,-,N/A,,Mostly Cloudy,310,2013-02-23 07:45:00
9:15 AM,44.6,35.6,71,29.53,6.2,South,3.5,-,N/A,,Mostly Cloudy,190,2013-02-23 08:15:00
9:45 AM,46.4,35.6,66,29.53,6.2,SSE,13.8,-,N/A,Rain,Light Rain,150,2013-02-23 08:45:00
10:15 AM,46.4,39.2,76,29.50,3.7,ESE,16.1,-,N/A,Rain,Light Rain,120,2013-02-23 09:15:00
10:45 AM,46.4,39.2,76,29.50,5.0,ESE,16.1,29.9,N/A,Rain,Light Rain,110,2013-02-23 09:45:00
11:15 AM,48.2,41.0,76,29.50,3.7,ESE,12.7,25.3,N/A,Rain,Light Rain,110,2013-02-23 10:15:00
11:45 AM,48.2,42.8,82,29.47,3.7,SE,18.4,-,N/A,Rain,Light Rain,130,2013-02-23 10:45:00
12:15 PM,50.0,46.4,87,29.44,2.5,SE,24.2,38.0,N/A,Rain,Rain,130,2013-02-23 11:15:00
12:45 PM,50.0,46.4,87,29.39,1.9,SE,27.6,47.2,N/A,Rain,Rain,130,2013-02-23 11:45:00
1:15 PM,50.0,48.2,94,29.39,1.2,SE,38.0,58.7,N/A,Rain,Rain,140,2013-02-23 12:15:00
1:45 PM,50.0,46.4,87,29.36,1.2,South,24.2,57.5,N/A,Rain,Rain,170,2013-02-23 12:45:00
2:15 PM,50.0,48.2,94,29.36,1.9,South,21.9,40.3,N/A,Rain,Rain,180,2013-02-23 13:15:00
2:45 PM,51.8,48.2,88,29.39,1.9,South,24.2,41.4,N/A,Rain,Rain,180,2013-02-23 13:45:00
3:15 PM,51.8,50.0,94,29.39,2.5,South,23.0,-,N/A,Rain,Rain,180,2013-02-23 14:15:00
3:45 PM,51.8,48.2,88,29.39,2.5,South,20.7,33.4,N/A,Rain,Rain,180,2013-02-23 14:45:00
4:15 PM,51.8,48.2,88,29.39,2.5,South,21.9,38.0,N/A,Rain,Rain,190,2013-02-23 15:15:00
4:45 PM,51.8,48.2,88,29.39,0.7,South,19.6,31.1,N/A,Rain,Rain,180,2013-02-23 15:45:00
5:15 PM,51.8,48.2,88,29.36,2.5,South,24.2,38.0,N/A,Rain,Rain,170,2013-02-23 16:15:00
5:45 PM,50.0,46.4,87,29.36,5.6,South,19.6,-,N/A,,Partly Cloudy,170,2013-02-23 16:45:00
6:15 PM,48.2,42.8,82,29.42,5.6,South,15.0,-,N/A,,Scattered Clouds,170,2013-02-23 17:15:00
6:45 PM,50.0,44.6,82,29.44,5.6,South,17.3,-,N/A,,Scattered Clouds,170,2013-02-23 17:45:00
7:15 PM,51.8,46.4,82,29.44,5.6,SSE,18.4,-,N/A,,Scattered Clouds,160,2013-02-23 18:15:00
7:45 PM,51.8,46.4,82,29.44,5.0,South,16.1,-,N/A,Rain-Thunderstorm,Light Thunderstorms and Rain,190,2013-02-23 18:45:00
8:15 PM,48.2,44.6,87,29.44,5.0,SSW,8.1,-,N/A,Rain,Light Rain,210,2013-02-23 19:15:00
8:45 PM,48.2,44.6,87,29.47,5.6,SW,9.2,-,N/A,Rain,Light Rain,220,2013-02-23 19:45:00
9:15 PM,48.2,44.6,87,29.50,5.6,SW,4.6,-,N/A,,Scattered Clouds,230,2013-02-23 20:15:00
9:45 PM,46.4,42.8,87,29.53,5.6,SSW,5.8,-,N/A,Rain,Light Rain,210,2013-02-23 20:45:00
10:15 PM,46.4,42.8,87,29.53,5.6,SSW,4.6,-,N/A,Rain,Light Rain,210,2013-02-23 21:15:00
10:45 PM,46.4,41.0,81,29.53,5.6,SW,6.9,-,N/A,,Scattered Clouds,220,2013-02-23 21:45:00
11:15 PM,46.4,41.0,81,29.56,5.6,SW,5.8,-,N/A,,Scattered Clouds,220,2013-02-23 22:15:00
11:45 PM,46.4,41.0,81,29.56,5.6,SSW,4.6,-,N/A,,Scattered Clouds,210,2013-02-23 22:45:00